User: anonymous   Login
Location: Biharia
(46.4333°N, 22.8000°E)
Time: 12:23:58
(UTC+00:00)
Language:

Okean-O - Orbit

View from above orbital plane
View from above orbital plane
View from above satellite
View from above satellite

Ground track
Ground track

The orbit data is extracted from the following two-line orbital elements,

1 25860U 99039A   22021.84154465  .00000211  00000-0  37576-4 0  9991
2 25860  98.1596  60.2913 0001581 110.3302 249.8077 14.76814036211615
Epoch (UTC): 21 January 2022 20:11:49
Eccentricity: 0.0001581
inclination: 98.1596°
perigee height: 638 km
apogee height: 640 km
right ascension of ascending node: 60.2913°
argument of perigee: 110.3302°
revolutions per day: 14.76814036
mean anomaly at epoch: 249.8077°
orbit number at epoch: 21161

The dashed part of the orbit path shows where the satellite is in the earth's shadow,  

DLR